Location: Newark
(45.9456°N, 15.4064°E)
Time: 17:57:03
(UTC+00:00)

SR - Pass Details

Date: 28 January 2020
Orbit: 575 x 880 km, 66.7° (Epoch: 22 February)

Event Time Altitude Azimuth Distance (km) Brightness Sun altitude
Rises 00:08:41 0° 297° (WNW) 3,483 - -60.0°
Reaches altitude 10° 00:14:18 10° 339° (NNW) 2,529 - -59.5°
Maximum altitude 00:14:59 10° 346° (NNW) 2,511 - -59.4°
Drops below altitude 10° 00:15:40 10° 353° (N) 2,519 - -59.4°
Sets 00:21:10 0° 36° (NE) 3,397 - -58.9°
